Wind_Speed
4 4 4 4 4 3 4 4 4 3 3 3 3 5 6 7 7 8 9 10 11 11 12 12 14 15 15 16 16 17 18 19 19 19 20 21 21 21 22 23 23 22 23 22 21 21 21 20 18
5 5 5 5 5 4 4 3 3 4 3 3 4 5 7 8 8 8 9 10 11 12 12 13 13 14 14 15 16 17 18 19 20 21 22 23 23 24 23 24 24 24 25 24 23 22 22 21 20
7 7 6 6 7 6 5 5 5 5 3 4 5 7 8 9 8 9 10 11 12 12 11 11 11 12 12 13 14 15 16 17 19 20 21 22 23 24 25 25 25 24 25 25 24 24 23 22 22
9 9 8 8 7 6 6 5 5 4 3 4 5 7 8 9 8 9 10 10 10 10 9 9 10 10 11 12 12 13 14 15 16 17 18 20 21 22 23 24 24 24 24 25 25 25 24 23 22
11 11 10 9 9 8 8 7 4 2 3 4 6 8 9 9 9 8 9 10 9 9 9 8 9 9 10 10 10 11 12 13 14 15 16 17 18 20 21 22 23 23 24 24 25 26 26 25 24
14 13 13 11 10 10 9 6 4 3 3 4 6 8 9 9 9 8 8 8 9 9 8 8 8 9 9 9 9 10 11 12 13 14 15 16 17 17 18 19 21 22 23 24 24 25 25 25 25
16 15 14 12 12 11 9 7 6 4 4 5 6 8 9 9 8 7 7 8 8 8 8 8 8 8 9 9 10 11 11 12 13 14 14 15 16 16 17 18 20 21 22 23 24 24 24 24 24
18 16 15 14 13 12 10 8 7 6 6 7 8 8 8 8 8 8 7 7 7 7 7 7 8 8 9 10 11 12 13 13 14 14 14 15 15 15 16 17 18 20 21 22 23 23 23 23 23
19 18 16 15 14 13 10 7 6 6 6 7 8 8 8 8 7 7 7 7 7 6 6 7 7 8 9 10 11 12 13 14 14 14 15 15 15 16 16 17 17 18 19 21 22 23 24 24 24
21 19 17 16 15 13 10 8 7 7 6 7 7 8 8 7 7 7 7 7 7 5 6 6 7 8 10 11 11 12 13 14 15 15 15 16 16 16 16 16 16 17 17 19 20 22 23 23 24
22 21 19 16 14 13 10 8 6 7 7 6 7 8 8 7 7 7 7 7 6 6 6 7 8 9 10 11 12 13 14 15 16 17 17 17 16 16 16 16 16 17 17 17 18 20 22 22 23
21 20 19 16 14 13 11 9 8 7 8 8 9 9 8 7 6 6 7 7 6 6 6 7 8 9 10 11 12 13 14 15 16 17 17 17 16 16 16 15 16 16 16 16 17 18 20 21 22
21 21 19 18 15 13 12 10 9 8 8 9 9 9 8 7 5 6 6 7 6 6 7 8 9 10 11 11 13 14 15 16 17 18 18 17 17 16 16 15 15 15 15 16 16 16 18 20 21
21 20 19 18 17 14 12 10 9 8 8 8 9 8 8 7 5 5 6 6 6 7 8 8 9 10 11 12 13 14 16 17 17 18 18 17 17 16 16 15 14 13 13 14 15 16 16 18 19
22 21 19 15 13 13 12 10 9 8 8 8 9 9 7 7 6 6 6 5 6 7 8 8 10 11 12 13 14 15 17 17 18 18 18 17 17 16 16 15 14 13 13 12 13 15 16 17 18
21 20 16 15 12 11 10 9 9 8 8 8 8 8 7 7 6 6 6 5 6 6 8 9 10 11 12 13 14 16 17 18 18 18 18 17 17 17 16 15 14 13 11 11 11 13 14 16 18
18 17 15 14 12 10 9 8 9 8 8 7 8 7 7 7 6 6 6 5 5 6 8 9 10 11 12 13 15 16 17 18 18 18 18 17 17 16 15 14 13 12 11 10 11 12 13 15 17
14 12 11 11 9 8 7 7 7 7 7 7 7 6 6 7 7 7 6 5 6 6 7 9 10 11 12 13 15 16 17 18 18 18 18 17 17 16 15 14 13 12 11 10 10 10 11 13 15
12 11 8 7 7 6 6 6 5 6 6 7 6 5 5 6 6 7 6 5 6 6 8 9 10 11 12 13 14 16 17 18 18 18 18 17 17 16 15 14 13 11 10 9 8 8 10 11 13
11 7 6 6 4 3 4 5 5 5 5 5 6 5 5 6 6 7 6 6 6 6 8 9 10 11 12 13 14 15 16 17 18 18 18 18 17 16 15 14 12 11 9 8 6 6 8 10 11
9 5 3 3 3 4 4 4 4 3 3 4 5 5 5 5 6 6 6 5 6 6 8 9 10 11 11 12 13 14 15 17 17 18 18 18 16 15 14 13 12 10 8 7 6 5 6 8 10
5 4 2 2 3 3 3 2 2 1 2 3 4 5 5 5 6 6 6 6 6 7 8 9 10 11 11 11 12 13 15 16 17 18 18 17 16 15 14 12 11 10 8 6 5 4 4 7 9
5 4 3 3 3 1 1 2 1 1 3 4 5 5 5 5 5 5 5 6 6 7 8 9 10 10 10 10 11 13 14 16 16 17 17 17 16 14 14 12 11 10 8 6 5 3 3 4 6
5 4 3 2 2 0 1 2 2 2 4 6 6 6 5 5 5 5 6 7 7 7 8 9 9 10 10 10 11 12 14 15 16 16 17 17 16 14 13 13 11 10 9 7 5 3 3 3 5
4 3 2 1 1 1 2 3 3 4 5 6 7 7 6 6 6 6 7 7 8 8 8 9 9 10 10 10 11 12 13 14 15 15 16 16 15 14 13 12 11 10 9 8 6 4 3 3 4
3 2 1 1 1 1 3 4 5 6 7 8 8 8 7 7 7 7 8 8 9 9 9 9 9 9 9 10 10 11 12 13 14 14 15 15 15 14 13 12 11 11 10 8 7 6 4 4 4
2 1 0 1 1 2 4 6 6 7 8 9 9 8 8 8 8 8 9 9 10 10 10 10 10 10 10 10 10 11 12 13 13 13 14 14 15 14 13 12 11 10 10 9 8 7 5 2 2
1 1 1 2 3 4 5 7 9 10 10 10 10 10 9 9 9 9 10 10 11 11 11 10 10 10 10 10 10 10 11 12 13 13 13 14 14 13 12 12 10 10 10 10 9 8 6 4 3
1 2 3 4 6 6 6 7 10 12 12 12 12 12 12 11 10 10 11 12 12 12 12 11 11 11 11 10 10 10 11 11 12 12 12 13 13 13 12 11 11 11 10 10 9 8 7 5 4
3 4 5 6 8 9 9 8 12 14 14 14 14 13 13 13 12 12 12 13 13 13 13 13 12 12 11 11 11 10 11 11 11 12 12 12 12 12 12 11 11 11 10 10 9 8 7 6 5
Wind_Direction
265 284 294 300 303 283 267 240 249 253 253 271 276 282 283 290 298 301 299 298 298 297 298 297 297 296 293 289 286 282 280 277 275 272 271 270 267 267 267 263 262 262 260 259 257 256 257 258 260
255 267 275 277 283 285 278 263 274 269 281 273 281 289 292 296 300 301 299 298 299 301 302 300 299 297 295 293 291 288 285 283 279 275 273 273 270 268 265 263 262 261 259 256 255 256 256 258 257
249 255 262 271 274 279 283 277 289 283 288 287 284 291 294 295 300 302 301 301 303 307 308 307 305 303 301 299 296 294 291 289 287 283 278 275 273 271 266 264 264 261 257 255 253 254 256 257 256
249 252 257 264 268 275 280 279 292 280 283 289 295 296 298 297 300 305 304 304 308 313 314 313 311 309 307 305 303 301 299 297 295 292 287 281 277 275 270 266 264 262 258 256 254 254 255 256 254
243 245 251 258 263 269 278 280 278 286 285 299 302 299 302 303 304 308 310 314 317 319 318 317 317 315 315 316 315 313 310 306 304 300 295 289 283 280 274 268 264 261 258 257 256 255 253 252 250
242 244 248 255 266 268 271 277 279 275 292 301 303 300 301 304 307 308 311 315 318 320 322 323 324 324 325 327 326 323 320 317 313 308 304 298 291 285 279 272 267 263 260 257 257 255 252 250 247
240 243 247 254 263 263 264 268 275 278 297 298 302 305 304 302 305 309 313 317 320 324 326 327 328 329 330 331 330 327 326 323 319 315 310 306 299 292 286 279 270 266 263 260 256 253 250 248 246
238 241 246 252 262 264 264 269 274 290 295 295 298 302 305 304 304 307 312 317 320 323 323 324 329 330 332 332 329 327 326 325 323 321 318 314 307 298 291 284 276 269 265 261 257 253 249 246 244
237 240 245 251 260 262 259 260 266 286 293 301 305 306 308 309 310 311 313 314 318 321 322 324 329 330 331 331 330 331 330 330 329 326 322 318 312 304 296 288 280 274 268 263 258 252 248 245 242
237 238 242 248 254 257 253 256 271 280 284 295 301 302 304 309 311 315 317 315 315 315 320 327 329 329 331 332 332 333 333 333 331 329 325 320 314 307 299 292 284 278 272 266 259 252 248 246 243
236 237 239 243 247 248 253 254 269 284 288 292 295 299 304 307 310 314 313 310 310 314 323 329 330 332 333 335 337 335 334 335 334 331 328 324 317 310 303 295 287 281 275 269 262 254 249 247 243
236 237 237 241 241 244 252 261 269 279 286 291 290 292 299 302 308 312 311 310 311 318 326 329 332 335 336 338 338 336 334 334 334 333 330 326 321 315 309 301 291 283 277 270 262 255 250 245 241
234 236 236 237 237 245 248 258 268 276 285 292 289 286 291 292 297 300 302 304 309 317 326 329 335 336 337 340 339 337 335 334 334 333 331 328 324 320 314 307 298 288 280 272 262 256 251 244 239
228 231 232 234 234 241 247 253 263 273 280 285 284 285 288 288 287 288 294 300 306 315 325 330 334 336 338 339 338 337 336 335 335 335 334 331 328 324 320 314 307 296 285 274 262 254 251 244 238
223 226 227 226 234 243 248 249 260 273 279 280 285 290 288 285 283 285 289 296 306 316 327 331 332 335 336 337 337 338 338 337 337 337 336 334 331 327 324 319 313 304 292 279 264 255 248 243 237
220 223 224 227 234 246 252 256 259 267 276 280 281 283 285 283 283 284 288 292 306 319 327 329 331 335 336 336 337 339 340 340 339 339 337 335 333 330 327 323 317 310 297 284 271 258 249 241 234
217 222 227 227 234 250 257 260 253 261 273 275 273 278 283 280 281 282 283 291 307 319 325 327 330 333 335 336 337 339 342 343 342 341 339 337 335 333 330 327 323 314 303 289 275 261 252 241 234
210 216 216 221 233 248 258 251 252 257 270 275 274 280 279 277 276 277 277 288 305 317 323 326 328 332 334 335 338 340 343 344 344 344 342 338 337 335 332 330 326 319 309 296 280 264 252 240 233
205 218 223 222 232 245 262 267 262 262 273 272 270 276 281 275 267 269 268 284 303 316 322 325 326 331 334 336 339 342 344 345 346 346 344 340 338 337 335 333 331 324 315 303 287 268 252 239 230
189 201 207 222 238 248 266 266 267 265 271 273 273 281 289 284 276 275 266 283 303 315 320 323 326 330 334 337 341 344 346 347 348 348 346 343 340 339 338 337 338 333 326 316 296 271 249 236 229
189 192 179 209 247 241 261 254 259 271 280 290 289 293 295 289 284 281 271 280 300 311 317 322 325 329 333 337 342 345 347 348 349 349 349 348 346 343 342 341 341 341 338 328 309 277 247 236 230
166 180 196 216 213 216 229 240 250 290 312 305 306 305 302 290 283 278 269 278 295 308 316 319 322 325 330 336 342 346 348 349 350 351 352 352 350 348 346 346 345 344 342 335 325 298 254 236 231
142 145 146 150 152 161 227 275 315 325 341 336 334 321 306 290 280 276 270 278 291 304 312 317 321 323 327 334 341 345 348 350 351 352 354 354 352 351 350 350 348 345 342 335 330 309 260 239 230
137 139 144 140 138 130 314 315 351 350 345 344 338 328 312 298 288 278 275 280 290 299 306 313 317 320 325 332 337 342 346 350 352 353 355 356 355 354 353 353 352 350 346 340 328 299 269 250 237
132 148 168 161 193 306 308 332 347 345 340 337 332 326 317 303 294 283 279 283 289 294 301 308 311 315 321 328 333 338 343 348 351 354 356 358 358 357 355 355 357 357 356 356 345 323 278 261 247
120 133 160 193 253 292 314 325 333 335 334 329 324 319 313 303 292 281 277 281 285 289 296 302 306 310 316 323 328 334 339 344 349 352 355 357 359 359 357 357 359 2 2 1 358 350 322 274 245
117 111 170 236 288 298 318 325 321 318 320 322 320 318 313 302 291 282 276 277 279 283 290 296 299 303 309 316 323 329 334 340 345 350 353 355 356 358 358 358 360 2 2 360 359 358 354 329 267
96 60 350 312 312 308 305 308 313 308 310 317 316 315 311 302 291 284 280 277 276 278 282 288 293 297 301 308 316 323 329 336 343 348 351 354 356 357 358 360 359 359 1 3 3 1 359 347 323
7 320 311 306 306 306 302 306 302 302 307 311 312 311 308 301 291 283 280 278 277 276 277 281 285 290 295 300 307 315 322 330 338 345 349 352 354 356 359 1 3 2 2 2 1 1 359 351 338
314 307 305 304 303 301 301 304 298 302 307 310 310 308 305 299 291 282 278 277 276 276 275 276 279 282 287 292 298 306 313 322 331 337 343 346 348 351 356 358 0 1 1 360 358 355 353 349 341
Height
5880 5879 5879 5879 5879 5879 5878 5878 5877 5877 5878 5879 5878 5878 5877 5878 5879 5880 5877 5874 5873 5872 5871 5870 5869 5868 5867 5866 5865 5865 5864 5863 5863 5863 5862 5862 5861 5861 5861 5861 5861 5861 5861 5862 5862 5863 5863 5864 5864
5879 5878 5879 5879 5878 5877 5877 5877 5876 5876 5877 5877 5877 5877 5876 5876 5876 5876 5874 5872 5871 5870 5869 5868 5867 5866 5865 5864 5863 5862 5861 5860 5859 5859 5858 5858 5857 5857 5857 5857 5857 5857 5857 5858 5858 5859 5860 5860 5861
5877 5877 5878 5877 5876 5876 5876 5875 5876 5876 5876 5876 5876 5876 5875 5874 5874 5873 5872 5870 5869 5868 5867 5866 5865 5864 5862 5861 5860 5859 5858 5857 5856 5855 5854 5854 5853 5853 5853 5852 5852 5852 5852 5853 5854 5855 5856 5857 5858
5876 5876 5876 5876 5875 5875 5875 5874 5874 5875 5875 5875 5875 5874 5873 5873 5873 5871 5870 5868 5867 5866 5865 5864 5863 5862 5860 5859 5858 5857 5855 5854 5853 5852 5850 5849 5849 5848 5848 5848 5848 5848 5848 5849 5850 5851 5852 5853 5854
5873 5874 5874 5874 5873 5874 5873 5873 5873 5874 5874 5874 5874 5872 5872 5871 5870 5869 5868 5866 5865 5865 5863 5862 5861 5860 5858 5857 5856 5854 5853 5852 5850 5849 5847 5846 5845 5844 5843 5843 5843 5843 5844 5844 5845 5846 5847 5848 5849
5871 5871 5872 5871 5871 5872 5871 5872 5872 5872 5872 5872 5872 5871 5870 5869 5869 5868 5867 5865 5864 5863 5862 5860 5859 5858 5857 5855 5854 5853 5851 5850 5848 5846 5844 5842 5841 5840 5839 5839 5838 5838 5839 5839 5840 5841 5842 5844 5845
5868 5868 5869 5869 5869 5869 5870 5871 5871 5870 5871 5871 5870 5869 5868 5868 5867 5866 5865 5864 5863 5861 5860 5859 5858 5856 5855 5854 5852 5851 5849 5847 5846 5844 5842 5839 5838 5836 5835 5834 5834 5834 5834 5834 5835 5836 5837 5839 5840
5864 5866 5866 5867 5867 5868 5868 5869 5869 5869 5869 5869 5869 5868 5867 5866 5865 5864 5864 5863 5861 5860 5859 5858 5856 5855 5854 5852 5850 5849 5847 5845 5843 5841 5839 5837 5835 5833 5831 5830 5829 5829 5829 5829 5830 5831 5832 5834 5835
5861 5864 5864 5864 5865 5866 5866 5867 5867 5868 5867 5867 5867 5866 5866 5865 5864 5863 5862 5861 5860 5859 5858 5856 5855 5854 5852 5850 5849 5847 5845 5843 5841 5838 5836 5834 5831 5829 5828 5826 5825 5825 5824 5824 5825 5825 5827 5828 5830
5857 5860 5861 5862 5863 5863 5863 5865 5865 5866 5865 5865 5865 5864 5864 5863 5862 5861 5860 5859 5858 5858 5857 5855 5854 5852 5850 5849 5847 5845 5843 5841 5838 5835 5833 5830 5828 5826 5824 5822 5821 5820 5820 5819 5819 5820 5821 5823 5825
5854 5856 5857 5859 5860 5860 5861 5862 5863 5864 5864 5864 5863 5863 5862 5862 5861 5860 5859 5858 5857 5856 5855 5854 5852 5851 5849 5847 5845 5843 5841 5838 5835 5832 5830 5827 5824 5822 5820 5818 5817 5816 5815 5815 5815 5815 5816 5818 5820
5851 5852 5853 5856 5857 5858 5859 5859 5860 5861 5862 5862 5862 5861 5860 5860 5859 5858 5857 5856 5856 5855 5853 5852 5851 5849 5847 5845 5843 5841 5838 5836 5833 5830 5826 5824 5821 5819 5816 5814 5813 5811 5811 5810 5810 5811 5811 5813 5815
5847 5848 5850 5852 5854 5855 5856 5857 5858 5859 5859 5859 5859 5858 5858 5858 5858 5857 5856 5855 5854 5853 5852 5850 5849 5847 5845 5843 5841 5838 5836 5833 5830 5827 5823 5820 5817 5815 5813 5810 5809 5807 5806 5805 5805 5806 5807 5808 5810
5843 5845 5846 5848 5850 5852 5853 5855 5856 5856 5857 5857 5857 5856 5856 5856 5856 5856 5855 5854 5852 5851 5850 5848 5847 5845 5843 5841 5839 5836 5833 5830 5827 5824 5820 5817 5814 5811 5809 5807 5805 5803 5802 5801 5801 5801 5802 5804 5805
5840 5843 5844 5845 5847 5850 5851 5853 5854 5854 5854 5854 5854 5854 5854 5854 5854 5854 5853 5852 5851 5849 5848 5847 5845 5843 5841 5839 5837 5834 5831 5827 5824 5821 5817 5814 5811 5808 5806 5803 5801 5799 5798 5797 5797 5797 5798 5799 5801
5837 5840 5842 5845 5846 5848 5851 5851 5852 5851 5852 5852 5852 5852 5852 5852 5852 5852 5851 5851 5849 5848 5847 5845 5844 5842 5840 5837 5835 5832 5828 5825 5822 5818 5815 5811 5808 5805 5802 5800 5798 5796 5794 5793 5793 5793 5794 5795 5797
5836 5838 5840 5844 5846 5846 5848 5849 5850 5849 5850 5850 5850 5850 5850 5850 5850 5849 5849 5849 5848 5846 5845 5844 5842 5840 5838 5836 5833 5830 5826 5823 5819 5816 5812 5809 5806 5802 5800 5797 5795 5793 5791 5790 5790 5789 5790 5791 5793
5835 5836 5839 5842 5844 5845 5846 5847 5848 5847 5847 5848 5848 5848 5848 5848 5848 5847 5847 5847 5846 5845 5844 5842 5840 5839 5836 5834 5831 5828 5824 5821 5817 5814 5810 5807 5803 5800 5797 5794 5792 5790 5788 5787 5786 5786 5786 5788 5789
5833 5836 5838 5841 5842 5843 5844 5844 5846 5845 5846 5846 5846 5846 5846 5846 5846 5846 5845 5845 5844 5843 5842 5840 5839 5837 5835 5832 5829 5826 5823 5819 5816 5812 5808 5805 5801 5798 5795 5792 5789 5787 5785 5784 5783 5783 5783 5784 5786
5832 5835 5838 5840 5841 5842 5843 5844 5844 5844 5844 5844 5844 5844 5844 5844 5844 5844 5843 5843 5842 5841 5840 5839 5837 5835 5833 5831 5828 5825 5821 5818 5814 5811 5807 5803 5799 5796 5793 5790 5787 5785 5783 5782 5781 5780 5781 5782 5783
5833 5835 5837 5839 5840 5841 5842 5843 5843 5843 5843 5843 5842 5842 5842 5842 5842 5841 5841 5841 5840 5840 5839 5838 5836 5834 5832 5829 5827 5824 5820 5817 5813 5809 5805 5801 5798 5794 5791 5789 5786 5784 5782 5780 5779 5779 5779 5780 5781
5833 5836 5837 5838 5839 5839 5841 5841 5842 5841 5841 5841 5841 5840 5840 5840 5840 5839 5839 5839 5838 5838 5837 5836 5834 5832 5830 5828 5825 5822 5819 5816 5812 5808 5804 5800 5797 5793 5790 5788 5785 5783 5781 5780 5778 5777 5777 5778 5779
5834 5835 5837 5838 5838 5839 5839 5840 5841 5840 5839 5839 5839 5838 5838 5838 5838 5838 5837 5837 5837 5836 5835 5834 5833 5831 5829 5827 5824 5821 5818 5815 5811 5807 5804 5800 5796 5793 5790 5787 5784 5782 5780 5779 5778 5777 5777 5777 5778
5834 5836 5837 5838 5838 5839 5839 5839 5839 5838 5838 5837 5837 5837 5837 5836 5836 5836 5835 5835 5835 5834 5833 5832 5831 5829 5827 5825 5823 5820 5817 5814 5810 5807 5803 5799 5796 5792 5789 5787 5784 5782 5780 5778 5777 5776 5776 5776 5776
5835 5837 5838 5838 5838 5839 5838 5838 5838 5837 5837 5836 5835 5835 5835 5834 5834 5834 5833 5833 5833 5832 5832 5830 5829 5828 5826 5824 5821 5819 5816 5813 5810 5806 5803 5799 5795 5792 5789 5786 5784 5781 5779 5778 5776 5775 5775 5775 5775
5835 5837 5838 5838 5838 5838 5837 5836 5837 5836 5835 5834 5834 5833 5833 5832 5832 5832 5831 5831 5830 5830 5829 5828 5827 5826 5824 5822 5820 5817 5815 5812 5809 5806 5802 5799 5795 5792 5789 5786 5784 5782 5779 5777 5776 5774 5774 5773 5773
5835 5836 5837 5837 5837 5836 5836 5836 5835 5834 5833 5833 5832 5831 5831 5831 5830 5829 5829 5829 5828 5828 5827 5826 5825 5824 5822 5820 5818 5816 5814 5811 5808 5805 5802 5798 5795 5792 5789 5786 5784 5782 5779 5777 5776 5774 5773 5772 5772
5835 5835 5836 5836 5835 5835 5835 5834 5834 5832 5832 5831 5830 5829 5828 5828 5827 5827 5826 5826 5825 5825 5824 5823 5822 5821 5820 5818 5817 5815 5812 5810 5807 5804 5801 5798 5795 5792 5789 5786 5784 5782 5779 5777 5776 5774 5773 5772 5772
5835 5835 5834 5834 5834 5834 5833 5835 5832 5830 5829 5828 5828 5827 5826 5825 5825 5824 5824 5823 5822 5822 5821 5820 5820 5819 5817 5816 5815 5813 5811 5808 5806 5803 5800 5797 5795 5792 5789 5786 5784 5782 5780 5778 5776 5774 5773 5772 5771
5834 5834 5833 5833 5832 5831 5831 5834 5829 5827 5826 5825 5825 5824 5823 5822 5821 5821 5820 5820 5819 5819 5818 5817 5817 5816 5815 5813 5812 5811 5809 5807 5804 5802 5799 5797 5794 5792 5789 5786 5784 5782 5780 5778 5776 5774 5773 5772 5771